Content
SEND FEEDBACK

Daily
Averages
Monthly
Summary
United States of America

ST. LOUIS, MISSOURI


Home > North America > United States > Missouri
Elevation: 163 meters     Latitude: 38 45N     Longitude: 090 22W

WEATHER
 
SELECT A DAY
Number of Records: 194,413;   Date Range: 1/1/95 - 4/19/14
 
SHARE

PRINT THIS DATA

[ ← Previous Day ]
WEATHER ALMANAC - 2 MAY, 2013
[ Next Day → ]
[ °F ]   °C
Weather ElementAverageHighLow
Temperature13 °C20.6 °C (1:54 pm)6.7 °C (10:54 pm)
Dewpoint9.9 °C15 °C (7:54 am)4 °C (11:20 pm)
Humidity82.6 %100 % (3:46 am)57 % (2:54 pm)
Barometer1020 hPa1022 hPa (8:54 pm)1017.3 hPa (2:54 am)
Wind Speed13.4 km/h25.9 km/h (2:54 pm)
Wind Gust37 km/h (2:54 pm)
Weather ElementAverage
Visibility12.1 km
Wind DirectionWSW (239.7 °)

Weather ElementTotal
Precipitation17.53 mm
Heating Degree Days4.7 (Base 18.3)
Growing Degree Days3.7 (Base 10)
Averaged from 31 records on 2 May, 2013
WEATHER CONDITIONS BREAKOUT
WIND DIRECTION BREAKOUT
WEATHER BY HOUR - 2 MAY, 2013
[ °F ]   °C
Local TimeTemperatureDewpointHumidityBarometerVisibilityWind DirectionWind SpeedGust SpeedPrecipitationEventsConditions
1:54 AM15.6 °C13.9 °C90 %1017.6 hPa16.1 kmCalmMostly Cloudy
2:54 AM15 °C13.9 °C93 %1017.3 hPa11.3 kmCalmClear
3:46 AM14 °C14 °C100 %1017.9 hPa2.4 kmCalmScattered Clouds
3:54 AM14.4 °C13.3 °C93 %1017.6 hPa1.6 kmCalmMostly Cloudy
3:59 AM14 °C13 °C94 %1018.3 hPa4.8 kmCalmMostly Cloudy
4:54 AM14.4 °C13.3 °C93 %1017.6 hPa6.4 kmCalmOvercast
5:54 AM14.4 °C13.9 °C97 %1018.3 hPa16.1 kmCalmMostly Cloudy
6:54 AM15.6 °C14.4 °C93 %1019.3 hPa16.1 kmSSW (200°)5.6 km/hMostly Cloudy
7:54 AM17.2 °C15 °C87 %1020 hPa16.1 kmNW (320°)13 km/h0 mmMostly Cloudy
8:54 AM16.1 °C11.7 °C75 %1021.3 hPa16.1 kmNNW (340°)13 km/hMostly Cloudy
9:54 AM16.1 °C10.6 °C70 %1021 hPa16.1 kmNNW (330°)16.7 km/hScattered Clouds
10:54 AM17.8 °C10.6 °C63 %1020.7 hPa16.1 kmNNW (330°)14.8 km/hPartly Cloudy
11:54 AM18.3 °C11.1 °C63 %1020.3 hPa16.1 kmWNW (300°)16.7 km/hScattered Clouds
12:54 PM19.4 °C11.7 °C61 %1020.3 hPa16.1 kmNNW (330°)9.3 km/hScattered Clouds
1:54 PM20.6 °C12.2 °C58 %1020 hPa16.1 kmNW (320°)20.4 km/hPartly Cloudy
2:54 PM19.4 °C10.6 °C57 %1019.6 hPa16.1 kmNW (310°)25.9 km/h37 km/hPartly Cloudy
3:54 PM17.2 °C9.4 °C60 %1020 hPa16.1 kmNW (310°)25.9 km/h33.3 km/hScattered Clouds
4:54 PM14.4 °C10 °C75 %1020 hPa6.4 kmWNW (290°)20.4 km/h0.51 mmRainRain
5:54 PM11.7 °C8.9 °C83 %1020.3 hPa6.4 kmNW (310°)20.4 km/h0.76 mmRainLight Rain
6:29 PM11 °C9 °C88 %1020.7 hPa14.5 kmWNW (300°)18.5 km/h0 mmOvercast
6:54 PM10.6 °C8.3 °C86 %1020.7 hPa12.9 kmWNW (300°)13 km/h0 mmRainLight Rain
7:21 PM10 °C8 °C87 %1021 hPa14.5 kmWNW (300°)22.2 km/h0 mmRainLight Rain
7:54 PM8.9 °C7.2 °C89 %1021 hPa9.7 kmWNW (300°)24.1 km/h1.52 mmRainLight Rain
8:54 PM7.8 °C6.1 °C89 %1022 hPa8 kmWNW (300°)18.5 km/h27.8 km/h2.54 mmRainRain
9:50 PM7 °C6 °C93 %1021.7 hPa6.4 kmNW (320°)20.4 km/h3.81 mmRainRain
9:51 PM7.2 °C5.6 °C90 %1021.7 hPa6.4 kmNW (320°)18.5 km/h3.81 mmRainRain
10:07 PM7 °C6 °C93 %1021.3 hPa9.7 kmNW (310°)14.8 km/h0.76 mmRainRain
10:32 PM7 °C5 °C87 %1021 hPa9.7 kmNW (320°)14.8 km/h1.78 mmRainLight Rain
10:54 PM6.7 °C5 °C89 %1020.7 hPa16.1 kmNW (310°)16.7 km/h2.03 mmRainLight Rain
11:20 PM7 °C4 °C81 %1020.3 hPa16.1 kmNW (320°)14.8 km/h0 mmRainLight Rain
11:54 PM6.7 °C4.4 °C85 %1020.3 hPa16.1 kmNNW (340°)14.8 km/h0 mmRainLight Rain
Hourly data recorded from KSUS, located 0 kilometers away from St. Louis, Missouri







STORIES FROM OUR PARTNERS